[[{"header":{"parameterUnit":"m.s-1","parameterCategory":2,"la1":30.2991,"la2":30.254,"lo1":-89.0895,"lo2":-89.0444,"dy":0.0017,"dx":0.0017,"nx":28,"ny":28,"refTime":"2023-09-23T03:00:00:Z","depth":"0","parameterNumber":2,"parameterNumberName":"U-component_of_CURRENTS"},"data":[0,0,0,0,0,0,0,0,0,0,0,0,0,0,0,0,0,0,0,0,0,0,0,0,0,0,0,0,0,0,0,0,0,0,0,0,0,0,0,0,0,0,0,0,0,0,0,0,0,0,0,0,0,0,0,0,0,0,0.3782,0.3783,0,0.3826,0.3826,0.3826,0.3824,0.3824,0.3823,0.3823,0.3795,0.3795,0.3794,0,0,0,0,0,0,0,0,0,0,0,0,0,0.3741,0.3741,0.3782,0.3783,0.3783,0.3826,0.3826,0.3827,0.3824,0.3824,0.3823,0.3823,0.3795,0.3795,0.3794,0,0,0,0,0,0,0,0,0,0,0,0,0,0.3766,0.3741,0.3782,0.379,0.3791,0.3826,0.3826,0.3827,0.3824,0.3824,0.3823,0.3823,0.3795,0.3795,0.3794,0.3801,0,0,0.3792,0.3792,0,0,0,0,0,0,0,0,0.3765,0.3767,0.3788,0.3789,0.3791,0.3822,0.3802,0.3815,0.3824,0.3809,0.3823,0.3823,0.38,0.3799,0.3805,0.38,0.3798,0.3792,0.3792,0.3791,0.3791,0,0,0,0,0,0,0,0.3763,0.3766,0.3796,0.3789,0.3791,0.3807,0.3809,0.3805,0.3803,0.381,0.3811,0.382,0.3799,0.3805,0.3804,0.3798,0.3792,0.3792,0.3791,0.3791,0.3862,0.3864,0,0,0,0,0,0,0.3762,0.3764,0.3795,0.3798,0.378,0.3808,0.381,0.381,0.3804,0.3805,0.3821,0.382,0.3807,0.3805,0.3803,0.3872,0.3791,0.3791,0.379,0.386,0.3863,0.3865,0,0,0,0,0,0,0.3761,0.3764,0.3793,0.3785,0.379,0.3809,0.3809,0.3811,0.3825,0.3814,0.3812,0.3834,0.3806,0.3804,0.3821,0.3869,0.3791,0.379,0.3857,0.3861,0.3864,0.3971,0,0,0,0,0,0,0.3759,0.3763,0.3763,0.3785,0.3791,0.3825,0.381,0.3812,0.3833,0.3833,0.3824,0.3821,0.3806,0.3823,0.3821,0.3866,0.3789,0.3854,0.3859,0.3863,0.3965,0.3978,0.3989,0,0,0,0,0,0.3757,0.3759,0.3763,0.3767,0.379,0.3826,0.3831,0.3841,0.3834,0.3849,0.385,0.3822,0.3848,0.3824,0.3821,0.3868,0.3852,0.3858,0.3862,0.3959,0.3975,0.3989,0,0,0,0,0,0,0.3733,0.3761,0.3764,0.3771,0.3803,0.3827,0.384,0.3849,0.3862,0.3858,0.3843,0.3841,0.3878,0.3857,0.383,0.3902,0.3849,0.3853,0.3923,0.3938,0.395,0.395,0.3789,0,0,0,0,0,0.3731,0.3743,0.3774,0.3781,0.3797,0.3821,0.3837,0.3848,0.3864,0.3869,0.3869,0.3874,0.3897,0.3903,0.3909,0.3941,0.3946,0.3972,0.3984,0.3995,0.3995,0.4048,0.4065,0.3882,0.3882,0.3882,0,0,0.3717,0.374,0.3742,0.3779,0.3799,0.384,0.3828,0.3858,0.3899,0.3863,0.3907,0.3911,0.3914,0.396,0.3975,0.3948,0.4058,0.4001,0.401,0.4004,0.4055,0.4073,0.4089,0.3885,0.3885,0.3884,0,0,0.3725,0.3725,0.3751,0.3783,0.3828,0.3851,0.3864,0.39,0.3922,0.3965,0.3963,0.3997,0.4012,0.4042,0.4055,0.4136,0.4119,0.4138,0.4201,0.4254,0.4269,0.4283,0.4345,0.4363,0.4146,0.4146,0.4146,0,0.3714,0.3752,0.3764,0.381,0.3843,0.3861,0.3909,0.3939,0.3979,0.401,0.3988,0.4059,0.4058,0.4139,0.4172,0.4165,0.4189,0.4146,0.427,0.4283,0.4295,0.4356,0.4374,0.4152,0.4151,0.4151,0.415,0,0.3752,0.3789,0.3808,0.3874,0.3908,0.3949,0.3997,0.4035,0.4058,0.4092,0.4164,0.4175,0.4217,0.4236,0.4227,0.4324,0.4315,0.4279,0.4232,0.432,0.4379,0.4396,0.416,0.4158,0.4156,0.4155,0,0,0.3724,0.3818,0.3828,0.3869,0.3947,0.3974,0.4053,0.4133,0.418,0.4224,0.4295,0.4353,0.4354,0.4369,0.4374,0.442,0.454,0.4389,0.439,0.4451,0.4673,0.4678,0.4697,0.4525,0.4528,0.453,0.4692,0,0.3762,0.385,0.3894,0.3975,0.4025,0.4073,0.414,0.4206,0.4258,0.4325,0.4371,0.4425,0.4409,0.443,0.4484,0.4513,0.4585,0.45,0.4578,0.4581,0.4573,0.4717,0.4469,0.4593,0.4709,0.4711,0.4714,0,0.38,0.3857,0.3942,0.4035,0.4058,0.4105,0.4204,0.4267,0.437,0.4408,0.4482,0.4506,0.4601,0.4553,0.4682,0.4628,0.4669,0.4689,0.4695,0.4667,0.4617,0.4517,0.4619,0.4515,0.474,0.4738,0.4736,0,0.378,0.3892,0.3958,0.3989,0.4092,0.4137,0.4192,0.4292,0.4346,0.4461,0.4512,0.4609,0.4663,0.4726,0.4798,0.4741,0.4933,0.4854,0.491,0.491,0.4698,0.4675,0.4699,0.4962,0.4962,0.4961,0.4961,0,0.3808,0.3855,0.3949,0.3977,0.4039,0.4122,0.4192,0.4262,0.4371,0.4445,0.4545,0.4627,0.4707,0.4823,0.4857,0.4969,0.4996,0.4959,0.4966,0.4733,0.4713,0.4607,0.4559,0.4967,0.4966,0.4965,0.4964,0,0.3769,0.3841,0.3903,0.4004,0.4028,0.4065,0.4161,0.4216,0.4337,0.4442,0.4485,0.4662,0.4836,0.4945,0.5071,0.5056,0.5009,0.5178,0.4917,0.489,0.4793,0.4759,0.4641,0.4509,0.5238,0.5239,0.524,0,0.3754,0.3789,0.3877,0.3896,0.3936,0.4,0.4043,0.4169,0.4233,0.4463,0.4513,0.4742,0.4861,0.5091,0.5125,0.5229,0.5102,0.507,0.4911,0.4802,0.4768,0.458,0.4461,0.468,0.4677,0.4674,0.4671,0,0.3704,0.3736,0.3776,0.383,0.3871,0.3905,0.3985,0.4028,0.4201,0.4304,0.4468,0.4586,0.4847,0.486,0.5049,0.5064,0.4807,0.5015,0.494,0.4392,0.4143,0.4011,0.4585,0.4645,0.4648,0.465,0.4651,0.4652,0.3637,0.3656,0.3716,0.3747,0.3783,0.3803,0.3789,0.3901,0.398,0.4099,0.4304,0.4403,0.4569,0.4783,0.4802,0.4695,0.4681,0.453,0.4522,0.4362,0.4147,0.4705,0.475,0.4753,0.4756,0.4758,0.476,0,0.3558,0.3596,0.363,0.366,0.364,0.3697,0.3734,0.3699,0.3736,0.3907,0.3999,0.411,0.4177,0.4322,0.4346,0.42,0.3941,0.4106,0.3733,0.3659,0.4185,0.4074,0.3924,0.3924,0.3924,0.3925,0.3925,0.3925,0.3519,0.3523,0.355,0.3499,0.3505,0.3422,0.3399,0.3384,0.3448,0.347,0.3517,0.3637,0.3889,0.4046,0.3969,0.3859,0.3562,0.3385,0.3446,0.378,0.3815,0.3848,0.3732,0.3513,0.3513,0.268,0.2674,0.267]},{"header":{"parameterUnit":"m.s-1","parameterCategory":2,"la1":30.2991,"la2":30.254,"lo1":-89.0895,"lo2":-89.0444,"dy":0.0017,"dx":0.0017,"nx":28,"ny":28,"refTime":"2023-09-23T03:00:00:Z","depth":"0","parameterNumber":3,"parameterNumberName":"V-component_of_CURRENTS"},"data":[0,0,0,0,0,0,0,0,0,0,0,0,0,0,0,0,0,0,0,0,0,0,0,0,0,0,0,0,0,0,0,0,0,0,0,0,0,0,0,0,0,0,0,0,0,0,0,0,0,0,0,0,0,0,0,0,0,0,-0.0288,-0.0288,0,-0.0348,-0.0349,-0.035,-0.0383,-0.0382,-0.0382,-0.0382,-0.0452,-0.0454,-0.0456,0,0,0,0,0,0,0,0,0,0,0,0,0,-0.0279,-0.0279,-0.0288,-0.0288,-0.0289,-0.0348,-0.0349,-0.035,-0.0383,-0.0382,-0.0382,-0.0382,-0.0451,-0.0454,-0.0456,0,0,0,0,0,0,0,0,0,0,0,0,0,-0.0306,-0.0278,-0.0288,-0.0312,-0.0314,-0.0348,-0.0349,-0.035,-0.0383,-0.0382,-0.0382,-0.0382,-0.0451,-0.0453,-0.0456,-0.0475,0,0,-0.0465,-0.0466,0,0,0,0,0,0,0,0,-0.0305,-0.0307,-0.0307,-0.031,-0.0313,-0.0357,-0.0371,-0.0392,-0.0383,-0.0358,-0.0382,-0.0382,-0.042,-0.0425,-0.0439,-0.0478,-0.0481,-0.0465,-0.0467,-0.0468,-0.0469,0,0,0,0,0,0,0,-0.0303,-0.0305,-0.0313,-0.0308,-0.0312,-0.0346,-0.0349,-0.0376,-0.039,-0.036,-0.0362,-0.0367,-0.0422,-0.0436,-0.044,-0.0482,-0.0465,-0.0467,-0.0469,-0.047,-0.0584,-0.0585,0,0,0,0,0,0,-0.0288,-0.0302,-0.0311,-0.0315,-0.0307,-0.0346,-0.0349,-0.0344,-0.0389,-0.0396,-0.0367,-0.0368,-0.0431,-0.0437,-0.0443,-0.0491,-0.0468,-0.0471,-0.0472,-0.0583,-0.0584,-0.0586,0,0,0,0,0,0,-0.0288,-0.0288,-0.0309,-0.031,-0.0315,-0.0345,-0.0339,-0.0345,-0.0357,-0.0394,-0.0401,-0.0372,-0.0431,-0.0439,-0.047,-0.0493,-0.0472,-0.0474,-0.0581,-0.0583,-0.0585,-0.0571,0,0,0,0,0,0,-0.0287,-0.0287,-0.0281,-0.0308,-0.0314,-0.0321,-0.0339,-0.0346,-0.0359,-0.0361,-0.0401,-0.0408,-0.0432,-0.0466,-0.0473,-0.0496,-0.0477,-0.0579,-0.0582,-0.0584,-0.057,-0.0572,-0.0574,0,0,0,0,0,-0.0286,-0.0275,-0.028,-0.0281,-0.0303,-0.032,-0.0326,-0.035,-0.0359,-0.0361,-0.0395,-0.0406,-0.0488,-0.0469,-0.0477,-0.0501,-0.0578,-0.0581,-0.0584,-0.0569,-0.0572,-0.0574,0,0,0,0,0,0,-0.0257,-0.0278,-0.0284,-0.0276,-0.0293,-0.0325,-0.033,-0.0346,-0.0375,-0.0376,-0.0414,-0.0423,-0.0465,-0.0484,-0.0463,-0.0545,-0.0539,-0.0544,-0.0525,-0.0528,-0.053,-0.048,-0.0479,0,0,0,0,0,-0.0248,-0.0249,-0.0272,-0.0263,-0.0272,-0.03,-0.0311,-0.0325,-0.0352,-0.0364,-0.0396,-0.0438,-0.0485,-0.0504,-0.0542,-0.0575,-0.0569,-0.0602,-0.0604,-0.0605,-0.0573,-0.06,-0.06,-0.0596,-0.0596,-0.0596,0,0,-0.023,-0.0244,-0.0242,-0.0258,-0.0274,-0.028,-0.0307,-0.0316,-0.0323,-0.0368,-0.0392,-0.0443,-0.0497,-0.0543,-0.0563,-0.0559,-0.0605,-0.0609,-0.061,-0.0575,-0.0603,-0.0603,-0.0603,-0.0598,-0.0597,-0.0597,0,0,-0.0202,-0.021,-0.0207,-0.0221,-0.0242,-0.026,-0.026,-0.0293,-0.0311,-0.034,-0.0388,-0.0444,-0.05,-0.0551,-0.0584,-0.0619,-0.0617,-0.0644,-0.0611,-0.0639,-0.0639,-0.0638,-0.0625,-0.0624,-0.0643,-0.0643,-0.0643,0,-0.0182,-0.0176,-0.0207,-0.021,-0.0211,-0.0248,-0.0238,-0.0267,-0.0306,-0.0318,-0.034,-0.0448,-0.0503,-0.0567,-0.0588,-0.0622,-0.0616,-0.0595,-0.0638,-0.0638,-0.0637,-0.0625,-0.0623,-0.0643,-0.0643,-0.0643,-0.0643,0,-0.0153,-0.0152,-0.015,-0.0164,-0.0171,-0.0168,-0.0203,-0.0218,-0.0247,-0.0278,-0.034,-0.0426,-0.048,-0.0534,-0.057,-0.0613,-0.0602,-0.0638,-0.0621,-0.0636,-0.0623,-0.0621,-0.0643,-0.0643,-0.0643,-0.0643,0,0,-0.0097,-0.0124,-0.0123,-0.0113,-0.0143,-0.0136,-0.0154,-0.0173,-0.0169,-0.0244,-0.0252,-0.0379,-0.0419,-0.0458,-0.0535,-0.0573,-0.0588,-0.0594,-0.0596,-0.0561,-0.0608,-0.0546,-0.0538,-0.0627,-0.0627,-0.0627,-0.0597,0,-0.0063,-0.0048,-0.0076,-0.0049,-0.0037,-0.0072,-0.0076,-0.01,-0.0134,-0.0155,-0.0262,-0.0305,-0.0395,-0.0424,-0.0481,-0.0558,-0.0583,-0.0589,-0.0615,-0.0614,-0.0542,-0.0535,-0.0482,-0.0446,-0.0596,-0.0595,-0.0595,0,-0.0021,-0.0017,0.0017,0.0024,0.0028,0.004,0.0052,0.004,-0.0012,-0.0038,-0.0107,-0.0182,-0.0267,-0.0338,-0.045,-0.0445,-0.0509,-0.0571,-0.0573,-0.0508,-0.0549,-0.0459,-0.0438,-0.0656,-0.0593,-0.0593,-0.0593,0,0.0057,0.0054,0.0092,0.0094,0.009,0.0111,0.0112,0.0085,0.0102,0.0044,0.0063,-0.0072,-0.0103,-0.0224,-0.0346,-0.0397,-0.0434,-0.053,-0.053,-0.0526,-0.0478,-0.0469,-0.0648,-0.0585,-0.0585,-0.0585,-0.0585,0,0.0117,0.0147,0.0138,0.0166,0.0227,0.0194,0.0256,0.0236,0.023,0.0293,0.014,0.0179,-0.0072,-0.013,-0.0276,-0.0358,-0.0376,-0.0493,-0.0511,-0.0473,-0.0464,-0.0649,-0.0779,-0.0584,-0.0584,-0.0585,-0.0585,0,0.0204,0.0191,0.0242,0.0254,0.0272,0.0322,0.0374,0.0421,0.0399,0.0482,0.0478,0.038,0.0321,0.0109,-0.0064,-0.0227,-0.044,-0.0367,-0.0279,-0.0287,-0.0531,-0.066,-0.0786,-0.0882,-0.0391,-0.0389,-0.0387,0,0.0249,0.0284,0.033,0.0378,0.0394,0.0459,0.052,0.0516,0.0585,0.0648,0.0717,0.0665,0.0697,0.0465,0.0175,-0.0047,-0.0301,-0.0198,-0.0312,-0.0505,-0.0665,-0.0769,-0.0851,-0.0249,-0.0247,-0.0245,-0.0243,0,0.034,0.0358,0.0402,0.0502,0.0581,0.0665,0.0756,0.0844,0.0884,0.0996,0.1145,0.1177,0.0966,0.0753,0.0405,0.0221,-0.0344,-0.0162,-0.0406,-0.0584,-0.0664,-0.0777,-0.0292,-0.0225,-0.0227,-0.0228,-0.0229,-0.023,0.0416,0.047,0.0536,0.0637,0.0733,0.0875,0.0988,0.1125,0.1309,0.1523,0.1524,0.1671,0.1252,0.0802,0.0486,-0.0109,-0.0166,-0.0341,-0.0481,-0.0567,-0.0668,-0.0107,-0.004,-0.0041,-0.0041,-0.0042,-0.0042,0,0.0511,0.0569,0.0666,0.08,0.0936,0.0958,0.1153,0.1301,0.1589,0.1827,0.2016,0.1964,0.1466,0.0877,0.0074,-0.0374,-0.0584,-0.0646,-0.0834,-0.0907,-0.0438,-0.0442,-0.0405,-0.0405,-0.0405,-0.0405,-0.0404,-0.0404,0.0567,0.0677,0.0727,0.0956,0.1061,0.1266,0.1396,0.1645,0.1858,0.2218,0.2379,0.2454,0.1988,0.0486,-0.0567,-0.0811,-0.1172,-0.1198,-0.1417,-0.1162,-0.1147,-0.1133,-0.1172,-0.1288,-0.1289,-0.1828,-0.1834,-0.1838]}],[{"header":{"parameterUnit":"m.s-1","parameterCategory":2,"la1":30.2991,"la2":30.254,"lo1":-89.0895,"lo2":-89.0444,"dy":0.0017,"dx":0.0017,"nx":28,"ny":28,"refTime":"2023-09-23T03:00:00:Z","depth":"2","parameterNumber":2,"parameterNumberName":"U-component_of_CURRENTS"},"data":[0,0,0,0,0,0,0,0,0,0,0,0,0,0,0,0,0,0,0,0,0,0,0,0,0,0,0,0,0,0,0,0,0,0,0,0,0,0,0,0,0,0,0,0,0,0,0,0,0,0,0,0,0,0,0,0,0,0,0.2815,0.2816,0,0.2846,0.2846,0.2846,0.2847,0.2847,0.2848,0.2848,0.2849,0.2848,0.2848,0,0,0,0,0,0,0,0,0,0,0,0,0,0.2743,0.2744,0.2815,0.2816,0.2817,0.2846,0.2846,0.2846,0.2847,0.2847,0.2848,0.2848,0.2849,0.2848,0.2848,0,0,0,0,0,0,0,0,0,0,0,0,0,0.2768,0.2744,0.2814,0.2826,0.2828,0.2846,0.2846,0.2846,0.2847,0.2847,0.2848,0.2848,0.2849,0.2849,0.2848,0.2838,0,0,0.2847,0.2847,0,0,0,0,0,0,0,0,0.2766,0.2769,0.2823,0.2825,0.2828,0.2849,0.2821,0.2844,0.2847,0.2832,0.2848,0.2848,0.285,0.285,0.2845,0.2838,0.2838,0.2847,0.2847,0.2847,0.2847,0,0,0,0,0,0,0,0.2764,0.2768,0.282,0.2825,0.2827,0.2826,0.2829,0.2825,0.2833,0.2834,0.2836,0.285,0.285,0.2846,0.2845,0.2838,0.2847,0.2847,0.2847,0.2846,0.2925,0.2927,0,0,0,0,0,0,0.2775,0.2766,0.2819,0.2822,0.2805,0.2827,0.2831,0.2836,0.2833,0.2836,0.285,0.285,0.2846,0.2846,0.2845,0.2909,0.2847,0.2846,0.2846,0.2922,0.2925,0.2927,0,0,0,0,0,0,0.2773,0.2779,0.2818,0.2801,0.2807,0.2829,0.2835,0.2837,0.2849,0.2847,0.2848,0.2863,0.2846,0.2846,0.2869,0.2906,0.2846,0.2846,0.292,0.2923,0.2926,0.2988,0,0,0,0,0,0,0.2771,0.2778,0.2784,0.2801,0.2808,0.2834,0.2835,0.2837,0.286,0.2861,0.2858,0.2858,0.2847,0.287,0.2869,0.2905,0.2846,0.2917,0.2921,0.2925,0.2983,0.2993,0.3002,0,0,0,0,0,0.2768,0.277,0.2784,0.2791,0.2816,0.2835,0.2837,0.285,0.286,0.2862,0.2878,0.2859,0.2897,0.2871,0.287,0.2906,0.2915,0.292,0.2925,0.2979,0.2991,0.3002,0,0,0,0,0,0,0.2745,0.2772,0.2787,0.2799,0.2822,0.2838,0.2852,0.286,0.2872,0.2889,0.2875,0.2876,0.2914,0.2904,0.2876,0.2946,0.2908,0.2913,0.295,0.2961,0.297,0.3018,0.2845,0,0,0,0,0,0.2746,0.2756,0.2784,0.28,0.2815,0.2838,0.285,0.2867,0.2884,0.289,0.2888,0.2906,0.2931,0.2941,0.295,0.2978,0.2998,0.3007,0.3016,0.3024,0.3065,0.3109,0.3126,0.2944,0.2944,0.2944,0,0,0.2741,0.2763,0.2768,0.2797,0.2821,0.285,0.2844,0.288,0.2906,0.2889,0.2919,0.2933,0.2946,0.2985,0.3002,0.2982,0.3088,0.3031,0.3037,0.3075,0.3116,0.3134,0.3149,0.2948,0.2947,0.2947,0,0,0.2743,0.2764,0.2774,0.2804,0.2854,0.2871,0.2887,0.2914,0.2927,0.2966,0.297,0.302,0.3028,0.306,0.3077,0.3147,0.3134,0.314,0.3225,0.3266,0.3281,0.3295,0.3347,0.3365,0.3146,0.3146,0.3146,0,0.2738,0.2767,0.2781,0.2815,0.2858,0.2885,0.2927,0.2939,0.2969,0.3002,0.299,0.3077,0.3079,0.3158,0.3192,0.317,0.319,0.3173,0.3278,0.3291,0.3304,0.3355,0.3374,0.3149,0.3149,0.3149,0.3148,0,0.2762,0.2791,0.281,0.2864,0.29,0.2948,0.2986,0.3011,0.3044,0.3077,0.316,0.3179,0.3243,0.3246,0.3246,0.3344,0.3328,0.3278,0.3245,0.3326,0.3374,0.3393,0.3155,0.3153,0.3152,0.3151,0,0,0.2729,0.2808,0.2813,0.2858,0.2945,0.2974,0.3032,0.3099,0.3151,0.3198,0.3281,0.3348,0.3384,0.3409,0.3409,0.3456,0.3562,0.3419,0.3419,0.3467,0.3666,0.3566,0.3577,0.3517,0.352,0.3523,0.3663,0,0.2749,0.2811,0.2855,0.2931,0.2979,0.3043,0.3102,0.3172,0.3221,0.3294,0.3367,0.3439,0.3433,0.3474,0.3531,0.3548,0.3614,0.353,0.3587,0.359,0.3486,0.3596,0.3312,0.3405,0.3681,0.3684,0.3687,0,0.2765,0.2808,0.2874,0.2991,0.302,0.3074,0.3191,0.3236,0.3348,0.3406,0.3509,0.3547,0.3666,0.3622,0.3748,0.3689,0.3713,0.372,0.3724,0.363,0.3525,0.3369,0.3428,0.3717,0.3715,0.3713,0.3711,0,0.2747,0.2831,0.2883,0.2923,0.3041,0.3097,0.3169,0.328,0.3352,0.3467,0.3546,0.3671,0.3751,0.38,0.3838,0.38,0.395,0.3882,0.3828,0.3821,0.3596,0.3562,0.3991,0.399,0.399,0.399,0.3989,0,0.2795,0.281,0.2874,0.2914,0.2993,0.309,0.321,0.3272,0.3427,0.3508,0.3599,0.3685,0.3799,0.388,0.3893,0.3931,0.3999,0.3893,0.3864,0.3608,0.3576,0.385,0.3831,0.3995,0.3994,0.3993,0.3992,0,0.2761,0.2808,0.2834,0.2942,0.2986,0.3029,0.3238,0.3299,0.3447,0.3547,0.3594,0.376,0.384,0.3923,0.4018,0.3999,0.4026,0.4016,0.3722,0.3656,0.3864,0.3848,0.3995,0.3993,0.3991,0.399,0.3989,0,0.2743,0.2753,0.2812,0.2844,0.2893,0.3008,0.3081,0.3274,0.3338,0.3553,0.3569,0.3738,0.3786,0.3924,0.3921,0.3954,0.4013,0.371,0.3588,0.3916,0.3872,0.3858,0.3845,0.3323,0.3317,0.3311,0.3307,0,0.2676,0.2666,0.2709,0.2773,0.2834,0.2916,0.3038,0.3104,0.3274,0.337,0.3457,0.3531,0.3681,0.3603,0.3687,0.3654,0.3676,0.3601,0.4032,0.3353,0.3289,0.3244,0.3251,0.3259,0.3264,0.3267,0.327,0.3272,0.259,0.2597,0.2647,0.2699,0.2748,0.2772,0.2805,0.2904,0.2984,0.3055,0.3227,0.3247,0.3348,0.3325,0.3242,0.3204,0.3448,0.3306,0.332,0.334,0.3224,0.3159,0.3085,0.3089,0.3092,0.3095,0.3097,0,0.2503,0.2553,0.2587,0.2628,0.2589,0.2679,0.2722,0.2698,0.2676,0.2791,0.2862,0.2707,0.2709,0.2803,0.2684,0.2708,0.2653,0.2595,0.2498,0.255,0.2596,0.2437,0.2092,0.2088,0.2085,0.2082,0,0,0.2488,0.2477,0.2496,0.2428,0.2458,0.2388,0.237,0.2315,0.236,0.2316,0.2342,0.2586,0.273,0.2367,0.2341,0.219,0.2337,0.2106,0.2923,0.2862,0.2902,0.3033,0.2853,0,0,0,0,0]},{"header":{"parameterUnit":"m.s-1","parameterCategory":2,"la1":30.2991,"la2":30.254,"lo1":-89.0895,"lo2":-89.0444,"dy":0.0017,"dx":0.0017,"nx":28,"ny":28,"refTime":"2023-09-23T03:00:00:Z","depth":"2","parameterNumber":3,"parameterNumberName":"V-component_of_CURRENTS"},"data":[0,0,0,0,0,0,0,0,0,0,0,0,0,0,0,0,0,0,0,0,0,0,0,0,0,0,0,0,0,0,0,0,0,0,0,0,0,0,0,0,0,0,0,0,0,0,0,0,0,0,0,0,0,0,0,0,0,0,0.0122,0.0121,0,0.0063,0.0063,0.0062,0.0017,0.0017,0.0016,0.0016,-0.0069,-0.007,-0.0072,0,0,0,0,0,0,0,0,0,0,0,0,0,0.016,0.016,0.0122,0.0121,0.012,0.0064,0.0063,0.0062,0.0017,0.0017,0.0016,0.0016,-0.0068,-0.007,-0.0072,0,0,0,0,0,0,0,0,0,0,0,0,0,0.0127,0.016,0.0122,0.0091,0.0088,0.0064,0.0063,0.0062,0.0017,0.0017,0.0016,0.0016,-0.0067,-0.007,-0.0073,-0.0078,0,0,-0.0081,-0.0083,0,0,0,0,0,0,0,0,0.0129,0.0125,0.0096,0.0093,0.009,0.0047,0.0045,0.0014,0.0018,0.0044,0.0016,0.0015,-0.0032,-0.0037,-0.0047,-0.0082,-0.0086,-0.0082,-0.0083,-0.0085,-0.0085,0,0,0,0,0,0,0,0.0131,0.0127,0.0098,0.0096,0.0092,0.0069,0.0064,0.0039,0.0009,0.0042,0.0038,0.0032,-0.0034,-0.0044,-0.0049,-0.0087,-0.0082,-0.0084,-0.0086,-0.0087,-0.0143,-0.0143,0,0,0,0,0,0,0.0141,0.013,0.01,0.0097,0.0108,0.0069,0.0063,0.0061,0.001,0.0002,0.0033,0.0031,-0.0039,-0.0046,-0.0053,-0.0049,-0.0085,-0.0087,-0.0089,-0.0144,-0.0143,-0.0143,0,0,0,0,0,0,0.0143,0.014,0.0102,0.0112,0.0106,0.0069,0.0067,0.006,0.005,0.0004,-0.0005,0.003,-0.004,-0.0049,-0.0073,-0.0053,-0.0088,-0.0091,-0.0144,-0.0144,-0.0143,-0.005,0,0,0,0,0,0,0.0144,0.014,0.0145,0.0113,0.0105,0.01,0.0068,0.006,0.0048,0.0044,-0.0001,-0.001,-0.0041,-0.0069,-0.0076,-0.0058,-0.0093,-0.0144,-0.0144,-0.0143,-0.0053,-0.0046,-0.0041,0,0,0,0,0,0.0146,0.0155,0.0145,0.0142,0.0112,0.01,0.0095,0.0066,0.0049,0.0053,0.0016,-0.0008,-0.0072,-0.0071,-0.0079,-0.0061,-0.0144,-0.0144,-0.0143,-0.0056,-0.0048,-0.0041,0,0,0,0,0,0,0.0173,0.0151,0.0139,0.0141,0.0127,0.0093,0.0091,0.0073,0.0047,0.0039,-0.0006,-0.0016,-0.003,-0.0063,-0.0061,-0.0079,-0.0112,-0.0113,-0.0043,-0.0036,-0.0029,-0.0016,-0.0096,0,0,0,0,0,0.0183,0.0185,0.016,0.0163,0.0156,0.0125,0.0116,0.0099,0.0071,0.0059,0.0028,-0.001,-0.0035,-0.0048,-0.0078,-0.0086,-0.0123,-0.0083,-0.0076,-0.0071,-0.0067,-0.0104,-0.01,-0.0142,-0.0142,-0.0142,0,0,0.0193,0.0182,0.0182,0.0169,0.0152,0.016,0.0118,0.011,0.0122,0.0054,0.0055,0.0012,-0.0034,-0.0043,-0.0052,-0.0067,-0.0078,-0.007,-0.0065,-0.0064,-0.0103,-0.0099,-0.0095,-0.0142,-0.0142,-0.0142,0,0,0.0224,0.0206,0.0222,0.0213,0.0197,0.0183,0.0185,0.0157,0.0149,0.0138,0.0096,0.0064,0.0024,0.0001,-0.0018,0.0003,-0.0044,-0.0008,0.0039,0.0004,0.0008,0.001,-0.0026,-0.0028,-0.0003,-0.0002,-0.0002,0,0.024,0.0257,0.0226,0.024,0.0241,0.02,0.0223,0.0213,0.0183,0.0186,0.0149,0.0089,0.0047,0.0043,0.0044,0.0021,-0.0012,0.002,0.0014,0.0016,0.0017,-0.0021,-0.0024,0.0002,0.0002,0.0001,0.0001,0,0.0282,0.0297,0.0304,0.0314,0.0312,0.0321,0.0305,0.0311,0.0288,0.027,0.0251,0.0182,0.0148,0.0128,0.0089,0.0084,0.0054,0.0028,0.0002,0.0027,-0.0015,-0.002,0.0009,0.0007,0.0006,0.0004,0,0,0.0315,0.0335,0.0338,0.0366,0.0352,0.0364,0.0387,0.0403,0.043,0.0374,0.039,0.0322,0.0271,0.0245,0.0189,0.0148,0.0122,0.0094,0.009,0.0069,0.0042,0.0018,0.001,0.0096,0.0096,0.0095,0.0011,0,0.0362,0.0423,0.0409,0.0468,0.05,0.0476,0.0509,0.0513,0.0497,0.0502,0.0424,0.0407,0.0322,0.0302,0.0248,0.0156,0.0113,0.0147,0.0009,0.0005,-0.001,0.0005,0.0039,-0.0034,0.0006,0.0005,0.0005,0,0.0409,0.045,0.0522,0.0572,0.0582,0.0604,0.0652,0.0678,0.0669,0.0651,0.0604,0.0536,0.047,0.0388,0.0242,0.0267,0.0162,0.008,0.0074,0.0016,-0.0028,-0.0056,-0.0044,-0.0003,-0.0003,-0.0002,-0.0002,0,0.0468,0.0526,0.0597,0.0609,0.0657,0.0686,0.0709,0.0721,0.0768,0.0743,0.0753,0.0648,0.0606,0.0458,0.0278,0.0261,0.0112,0.0071,-0.0049,-0.0053,-0.007,-0.0073,-0.003,-0.003,-0.003,-0.003,-0.003,0,0.0523,0.0579,0.0633,0.067,0.0755,0.0758,0.084,0.0847,0.0878,0.0941,0.0831,0.0839,0.0619,0.0505,0.0323,0.0128,0.0147,-0.004,-0.0074,-0.0037,-0.0036,-0.005,-0.0051,-0.0033,-0.0032,-0.0032,-0.0031,0,0.0572,0.0608,0.0696,0.0763,0.0785,0.0845,0.0922,0.0993,0.1003,0.1078,0.1076,0.0987,0.0831,0.0606,0.0371,0.0205,0.001,-0.0063,-0.0007,-0.0034,-0.0145,-0.0141,-0.0208,-0.021,-0.0211,-0.0212,-0.0213,0,0.0603,0.0659,0.076,0.0814,0.084,0.0929,0.1001,0.1047,0.1127,0.1175,0.1221,0.11,0.1023,0.0666,0.0352,0.004,0.0001,-0.0124,-0.0157,-0.0136,-0.0163,-0.0156,-0.015,-0.0145,-0.0146,-0.0146,-0.0146,0,0.0662,0.0701,0.0774,0.0888,0.0968,0.1073,0.1171,0.1256,0.1337,0.1389,0.1431,0.1372,0.1044,0.0722,0.0304,0.0106,-0.0076,-0.0139,-0.0124,-0.0102,-0.0083,-0.0107,-0.0102,-0.0148,-0.0148,-0.0148,-0.0147,-0.0147,0.0703,0.0762,0.0861,0.0967,0.1069,0.1201,0.1291,0.1403,0.1531,0.1614,0.1571,0.1483,0.1145,0.0593,0.0244,-0.0109,-0.0098,-0.0222,-0.0219,-0.0216,-0.019,-0.0173,-0.0251,-0.0252,-0.0252,-0.0252,-0.0252,0,0.0755,0.0824,0.093,0.1062,0.1179,0.1226,0.1403,0.1494,0.1632,0.1692,0.1698,0.1377,0.1025,0.064,0.0104,-0.0212,-0.022,-0.0298,-0.0248,-0.0243,-0.0239,-0.0214,-0.0283,-0.0284,-0.0285,-0.0286,0,0,0.0786,0.089,0.0949,0.1134,0.1229,0.1388,0.1491,0.1607,0.1685,0.1722,0.1676,0.1584,0.1128,0.0735,0.0308,0.0001,-0.0041,-0.0042,0.0019,0.0134,0.0142,-0.0157,-0.0107,0,0,0,0,0]}],[{"header":{"parameterUnit":"m.s-1","parameterCategory":2,"la1":30.2991,"la2":30.254,"lo1":-89.0895,"lo2":-89.0444,"dy":0.0017,"dx":0.0017,"nx":28,"ny":28,"refTime":"2023-09-23T03:00:00:Z","depth":"4","parameterNumber":2,"parameterNumberName":"U-component_of_CURRENTS"},"data":[0,0,0,0,0,0,0,0,0,0,0,0,0,0,0,0,0,0,0,0,0,0,0,0,0,0,0,0,0,0,0,0,0,0,0,0,0,0,0,0,0,0,0,0,0,0,0,0,0,0,0,0,0,0,0,0,0,0,0.1577,0.1578,0,0.1649,0.165,0.1651,0.1723,0.1723,0.1724,0.1725,0.1805,0.1807,0.1808,0,0,0,0,0,0,0,0,0,0,0,0,0,0.1489,0.149,0.1577,0.1578,0.1579,0.1649,0.165,0.1651,0.1722,0.1724,0.1725,0.1726,0.1805,0.1807,0.1808,0,0,0,0,0,0,0,0,0,0,0,0,0,0.1541,0.1491,0.1577,0.1622,0.1627,0.1648,0.165,0.1651,0.1722,0.1724,0.1725,0.1726,0.1805,0.1806,0.1808,0.1794,0,0,0.1814,0.1815,0,0,0,0,0,0,0,0,0.1538,0.1545,0.1615,0.1619,0.1625,0.1677,0.1648,0.1699,0.1722,0.1687,0.1725,0.1727,0.1762,0.1767,0.1779,0.1798,0.1801,0.1815,0.1816,0.1817,0.1817,0,0,0,0,0,0,0,0.1535,0.1542,0.1607,0.1616,0.1622,0.1634,0.1643,0.1658,0.1717,0.169,0.1695,0.1701,0.1765,0.1777,0.1781,0.1802,0.1815,0.1816,0.1817,0.1818,0.1921,0.1922,0,0,0,0,0,0,0.1523,0.1539,0.1604,0.1609,0.1583,0.1635,0.1645,0.166,0.1717,0.1727,0.17,0.1704,0.1773,0.1779,0.1785,0.186,0.1817,0.1818,0.182,0.1919,0.1921,0.1923,0,0,0,0,0,0,0.1521,0.1529,0.1601,0.1574,0.1584,0.1635,0.1651,0.166,0.1715,0.1724,0.1735,0.175,0.1774,0.1782,0.1837,0.1861,0.1819,0.1821,0.1917,0.192,0.1922,0.1954,0,0,0,0,0,0,0.1519,0.1528,0.1554,0.1573,0.1585,0.164,0.165,0.1661,0.1714,0.1721,0.1769,0.1775,0.1776,0.1834,0.1839,0.1863,0.1823,0.1915,0.1918,0.1921,0.1951,0.1957,0.1963,0,0,0,0,0,0.1515,0.1537,0.1555,0.1564,0.1613,0.1641,0.1649,0.1689,0.1715,0.1743,0.1781,0.1776,0.1856,0.1837,0.1842,0.1867,0.1914,0.1917,0.1921,0.1949,0.1956,0.1963,0,0,0,0,0,0,0.1516,0.1547,0.1567,0.16,0.1631,0.1653,0.1684,0.1711,0.1764,0.178,0.1797,0.1806,0.1863,0.1864,0.1843,0.1907,0.1883,0.1888,0.1903,0.191,0.1916,0.1919,0.1824,0,0,0,0,0,0.1525,0.1552,0.158,0.1611,0.1629,0.1666,0.1691,0.1716,0.1752,0.1779,0.1812,0.1845,0.1873,0.1893,0.1917,0.195,0.1971,0.197,0.1976,0.1981,0.1988,0.2061,0.2074,0.1934,0.1934,0.1934,0,0,0.1534,0.1554,0.1572,0.1614,0.1643,0.1671,0.1686,0.1729,0.176,0.1776,0.1844,0.1872,0.189,0.193,0.1955,0.1939,0.2029,0.1985,0.1989,0.1994,0.2066,0.208,0.2092,0.1936,0.1936,0.1935,0,0,0.1542,0.1585,0.1604,0.1635,0.1679,0.1698,0.172,0.1765,0.18,0.1854,0.1876,0.1924,0.1968,0.1984,0.1995,0.2047,0.2062,0.206,0.2086,0.2156,0.2168,0.2179,0.2209,0.2222,0.2057,0.2057,0.2057,0,0.1551,0.1581,0.1616,0.1642,0.1671,0.1715,0.1743,0.1778,0.1839,0.1875,0.1884,0.1983,0.1989,0.2045,0.2055,0.2059,0.2097,0.2054,0.2164,0.2175,0.2186,0.2214,0.2228,0.2059,0.2059,0.2058,0.2058,0,0.1565,0.1603,0.162,0.1667,0.1705,0.1738,0.1782,0.1836,0.1883,0.1919,0.2006,0.2031,0.2092,0.2095,0.2084,0.2164,0.2164,0.2167,0.2144,0.2202,0.2227,0.2242,0.2062,0.2061,0.206,0.206,0,0,0.1543,0.1613,0.1624,0.1649,0.1724,0.1745,0.1813,0.1877,0.1933,0.2,0.2075,0.2117,0.2156,0.2171,0.2182,0.2226,0.2308,0.2228,0.2231,0.2252,0.2456,0.2309,0.231,0.2346,0.2349,0.2352,0.2437,0,0.1545,0.1585,0.1629,0.1681,0.1706,0.1778,0.1836,0.1907,0.1974,0.2057,0.2112,0.2188,0.2178,0.222,0.2266,0.231,0.2352,0.2284,0.24,0.2403,0.2262,0.2324,0.2362,0.2448,0.2451,0.2453,0.2455,0,0.1543,0.157,0.1617,0.1688,0.1709,0.1757,0.1866,0.1927,0.205,0.2109,0.2208,0.2261,0.2346,0.2325,0.2447,0.2416,0.2438,0.2459,0.2464,0.2326,0.2283,0.2383,0.2481,0.2479,0.2477,0.2475,0.2474,0,0.1491,0.1561,0.1596,0.1624,0.1715,0.1765,0.1832,0.1955,0.2021,0.2166,0.2239,0.2349,0.2429,0.2494,0.2543,0.2516,0.2665,0.2631,0.2519,0.2508,0.26,0.2587,0.2716,0.2716,0.2715,0.2715,0.2715,0,0.1456,0.1489,0.1582,0.1596,0.1664,0.1748,0.1838,0.193,0.2064,0.2152,0.2276,0.2358,0.2485,0.2578,0.2592,0.2605,0.2718,0.2533,0.253,0.2608,0.2596,0.2608,0.2595,0.2718,0.2718,0.2717,0.2717,0,0.139,0.145,0.15,0.16,0.164,0.1701,0.1838,0.1902,0.2052,0.2176,0.2233,0.2406,0.2529,0.2623,0.2731,0.2662,0.2686,0.2659,0.2736,0.2734,0.2461,0.2448,0.2527,0.2523,0.2519,0.2516,0.2513,0,0.1353,0.1374,0.1493,0.1533,0.1584,0.1679,0.1748,0.1893,0.1957,0.2183,0.2227,0.2412,0.2507,0.2546,0.2647,0.2683,0.2651,0.2634,0.2531,0.2457,0.2447,0.244,0.2433,0.2508,0.2507,0.2506,0.2505,0,0.1284,0.1351,0.1388,0.147,0.1545,0.1617,0.1716,0.1746,0.1921,0.2071,0.2173,0.2249,0.2382,0.2457,0.2517,0.253,0.2626,0.2595,0.2601,0.2504,0.2435,0.2427,0.2424,0.2492,0.2494,0.2495,0.2496,0,0.1246,0.1264,0.1326,0.139,0.1482,0.1526,0.1588,0.1659,0.1742,0.197,0.2002,0.22,0.2359,0.238,0.2433,0.2444,0.2392,0.2291,0.2312,0.2327,0.2222,0.2104,0.2066,0,0,0,0,0,0.1196,0.1195,0.1236,0.1291,0.1379,0.1435,0.1553,0.1616,0.1774,0.1797,0.1888,0.1998,0.2098,0.2195,0.2167,0.2342,0.2399,0.2297,0.2292,0.2423,0.2437,0.2333,0,0,0,0,0,0,0.1156,0.1186,0.1191,0.1197,0.1223,0.1305,0.1382,0.1493,0.1496,0.1671,0.1735,0.1872,0.1997,0.21,0.213,0.2158,0.2111,0.2412,0.2406,0.2415,0.2428,0.244,0.2338,0,0,0,0,0]},{"header":{"parameterUnit":"m.s-1","parameterCategory":2,"la1":30.2991,"la2":30.254,"lo1":-89.0895,"lo2":-89.0444,"dy":0.0017,"dx":0.0017,"nx":28,"ny":28,"refTime":"2023-09-23T03:00:00:Z","depth":"4","parameterNumber":3,"parameterNumberName":"V-component_of_CURRENTS"},"data":[0,0,0,0,0,0,0,0,0,0,0,0,0,0,0,0,0,0,0,0,0,0,0,0,0,0,0,0,0,0,0,0,0,0,0,0,0,0,0,0,0,0,0,0,0,0,0,0,0,0,0,0,0,0,0,0,0,0,0.0198,0.0198,0,0.0164,0.0164,0.0163,0.0133,0.0133,0.0133,0.0132,0.0073,0.0072,0.007,0,0,0,0,0,0,0,0,0,0,0,0,0,0.0217,0.0216,0.0198,0.0198,0.0197,0.0164,0.0164,0.0163,0.0133,0.0133,0.0132,0.0132,0.0073,0.0072,0.007,0,0,0,0,0,0,0,0,0,0,0,0,0,0.0198,0.0216,0.0198,0.0179,0.0177,0.0165,0.0164,0.0163,0.0133,0.0133,0.0132,0.0132,0.0074,0.0072,0.007,0.0066,0,0,0.0064,0.0063,0,0,0,0,0,0,0,0,0.0199,0.0197,0.0182,0.018,0.0178,0.0153,0.0149,0.013,0.0133,0.0149,0.0132,0.0132,0.0098,0.0094,0.0088,0.0064,0.0061,0.0064,0.0063,0.0062,0.0061,0,0,0,0,0,0,0,0.02,0.0198,0.0184,0.0182,0.0179,0.0165,0.0162,0.0145,0.0125,0.0148,0.0145,0.0143,0.0097,0.009,0.0086,0.006,0.0064,0.0062,0.0061,0.006,0.0041,0.0042,0,0,0,0,0,0,0.0207,0.0199,0.0185,0.0183,0.0188,0.0166,0.0162,0.0161,0.0126,0.0121,0.0144,0.0142,0.0094,0.0089,0.0084,0.0099,0.0062,0.006,0.0059,0.0041,0.0041,0.0042,0,0,0,0,0,0,0.0208,0.0207,0.0186,0.0191,0.0187,0.0166,0.0165,0.0161,0.0157,0.0123,0.0117,0.0145,0.0093,0.0087,0.0074,0.0095,0.0059,0.0057,0.004,0.0041,0.0042,0.0115,0,0,0,0,0,0,0.0209,0.0207,0.0211,0.0192,0.0188,0.0187,0.0165,0.016,0.0156,0.0154,0.0122,0.0116,0.0092,0.0077,0.0072,0.0092,0.0056,0.0039,0.004,0.0041,0.0112,0.0118,0.0124,0,0,0,0,0,0.0209,0.0218,0.0212,0.021,0.0194,0.0188,0.0185,0.0167,0.0157,0.0161,0.0138,0.0117,0.0081,0.0076,0.007,0.009,0.0038,0.004,0.0041,0.0109,0.0117,0.0124,0,0,0,0,0,0,0.0228,0.0215,0.0208,0.0212,0.0205,0.0183,0.0186,0.0173,0.0159,0.0157,0.0122,0.0115,0.0113,0.009,0.0084,0.0088,0.0058,0.0058,0.0111,0.0119,0.0125,0.0131,0.0054,0,0,0,0,0,0.0235,0.024,0.0224,0.0229,0.0227,0.0208,0.0204,0.0194,0.0177,0.017,0.0148,0.0127,0.0115,0.0107,0.0089,0.009,0.0052,0.0099,0.0106,0.0111,0.0112,0.0076,0.0079,0.0047,0.0047,0.0047,0,0,0.0242,0.0239,0.0239,0.0234,0.0226,0.0234,0.0205,0.0205,0.0215,0.0166,0.0171,0.0146,0.0119,0.0121,0.0118,0.0104,0.0099,0.0113,0.0118,0.0116,0.0078,0.0081,0.0084,0.0048,0.0048,0.0048,0,0,0.0267,0.0258,0.0272,0.027,0.0266,0.0257,0.026,0.0243,0.0239,0.0237,0.021,0.0196,0.0174,0.0161,0.0152,0.0181,0.0132,0.0179,0.0217,0.0183,0.0185,0.0187,0.0138,0.0134,0.0183,0.0184,0.0184,0,0.0278,0.0295,0.0275,0.0291,0.0299,0.0271,0.0293,0.0285,0.0267,0.0269,0.0248,0.0218,0.0195,0.0199,0.0211,0.0196,0.016,0.0193,0.0191,0.0192,0.0192,0.0141,0.0137,0.0187,0.0187,0.0186,0.0186,0,0.031,0.0329,0.0339,0.0352,0.0355,0.037,0.0358,0.0362,0.0349,0.0337,0.0332,0.0292,0.0275,0.0269,0.0249,0.0249,0.0217,0.0203,0.0173,0.02,0.0144,0.0138,0.0193,0.0191,0.019,0.0189,0,0,0.0325,0.0358,0.0362,0.0387,0.0393,0.04,0.0421,0.0431,0.0448,0.0415,0.0427,0.0398,0.0367,0.0354,0.0323,0.0293,0.0265,0.0254,0.0251,0.0208,0.0175,0.0145,0.0134,0.0249,0.0248,0.0248,0.0134,0,0.0361,0.0417,0.0417,0.0468,0.0496,0.0486,0.0512,0.0514,0.0503,0.0504,0.0457,0.0453,0.0403,0.0399,0.036,0.0291,0.0252,0.0296,0.0153,0.0149,0.0121,0.0128,0.0246,0.0129,0.0127,0.0126,0.0125,0,0.0393,0.0432,0.0494,0.0545,0.0554,0.0579,0.0614,0.0632,0.0624,0.0615,0.0586,0.054,0.0496,0.045,0.0328,0.0357,0.0274,0.0209,0.0203,0.0145,0.0108,0.0096,0.0113,0.0114,0.0115,0.0116,0.0116,0,0.0422,0.0482,0.0541,0.0556,0.0604,0.0634,0.066,0.067,0.0698,0.0685,0.0688,0.0614,0.0583,0.0469,0.0328,0.033,0.0179,0.0165,0.0053,0.0049,0.0077,0.0077,0.0077,0.0077,0.0077,0.0078,0.0078,0,0.0459,0.0503,0.0564,0.0594,0.0667,0.0683,0.0748,0.076,0.0784,0.0814,0.0749,0.0734,0.0587,0.0479,0.0345,0.0173,0.0187,0.0055,0.0021,0.011,0.0115,0.0072,0.0073,0.0073,0.0074,0.0075,0.0076,0,0.0475,0.0516,0.0584,0.0656,0.0684,0.0735,0.0814,0.0857,0.0873,0.0906,0.0906,0.0824,0.0676,0.0508,0.0316,0.0202,0.0041,-0.0023,0.0074,0.0047,-0.0074,-0.0068,-0.0158,-0.016,-0.0162,-0.0163,-0.0164,0,0.0486,0.0527,0.0626,0.0671,0.0707,0.0788,0.0849,0.09,0.0942,0.0949,0.096,0.0844,0.0759,0.0464,0.0285,0.0018,-0.0017,-0.0101,-0.008,-0.0072,-0.0097,-0.0088,-0.008,-0.0167,-0.0167,-0.0168,-0.0168,0,0.0501,0.0539,0.06,0.0704,0.0778,0.0861,0.0944,0.0984,0.1034,0.1047,0.0996,0.085,0.0679,0.0452,0.0246,0.0057,-0.0045,-0.0119,-0.0116,-0.0098,-0.0084,-0.0105,-0.0095,-0.0174,-0.0173,-0.0172,-0.0172,0,0.051,0.0554,0.0639,0.0728,0.0823,0.0907,0.0952,0.0999,0.1045,0.1052,0.1025,0.0853,0.0757,0.047,0.0278,0.0089,0.0041,-0.0012,-0.0016,-0.0012,0.0064,0.0105,0.0042,0,0,0,0,0,0.0517,0.057,0.0652,0.0755,0.0849,0.0907,0.1005,0.1042,0.1089,0.106,0.1048,0.0886,0.0605,0.0485,0.0288,0.0234,0.0001,-0.0004,-0.0063,-0.0205,-0.0199,-0.0137,0,0,0,0,0,0,0.0522,0.0599,0.0651,0.0764,0.083,0.0939,0.1005,0.1036,0.102,0.1031,0.0881,0.0827,0.0549,0.0708,0.0278,0.0222,0.0156,-0.0129,-0.0134,-0.0209,-0.0203,-0.0198,-0.0132,0,0,0,0,0]}]]